This is the latest recevied weather packets stored in our database for station/object SQ5RTW-1. If no packets are shown the sender has not sent any weather packets the latest 10 day(s).
| Time | Temp. | Humidity | Pressure | Rain* | Wind** | Luminosity | Snow |
|---|---|---|---|---|---|---|---|
| 1777433150 | 2.22° C | 73% | 1029.3 hPa | - | - | - | - |
| 1777433126 | 0° C | 72% | 1029.4 hPa | - | - | - | - |
| 1777432225 | 0° C | 72% | 1029.1 hPa | - | - | - | - |
| 1777431324 | 0° C | 69% | 1029.1 hPa | - | - | - | - |
| 1777430423 | 0° C | 69% | 1029 hPa | - | - | - | - |
| 1777429522 | 1.11° C | 68% | 1029 hPa | - | - | - | - |
| 1777429505 | 2.22° C | 68% | 1029 hPa | - | - | - | - |
| 1777428641 | 1.67° C | 66% | 1028.9 hPa | - | - | - | - |
| 1777428624 | 2.22° C | 66% | 1028.9 hPa | - | - | - | - |
| 1777428600 | 0° C | 66% | 1028.9 hPa | - | - | - | - |
| 1777427699 | 0.56° C | 64% | 1028.9 hPa | - | - | - | - |
| 1777426798 | 0.56° C | 62% | 1028.9 hPa | - | - | - | - |
| 1777425897 | 0.56° C | 61% | 1028.8 hPa | - | - | - | - |
| 1777424996 | 2.22° C | 60% | 1028.8 hPa | - | - | - | - |
| 1777424124 | 1.11° C | 59% | 1028.8 hPa | - | - | - | - |
| 1777423223 | 1.11° C | 57% | 1028.7 hPa | - | - | - | - |
| 1777422322 | 3.33° C | 56% | 1028.8 hPa | - | - | - | - |
| 1777422306 | 3.89° C | 57% | 1028.7 hPa | - | - | - | - |
| 1777421605 | 1.67° C | 57% | 1028.8 hPa | - | - | - | - |
| 1777420704 | 1.67° C | 56% | 1028.7 hPa | - | - | - | - |
| 1777419803 | 2.22° C | 55% | 1028.7 hPa | - | - | - | - |
| 1777418902 | 2.22° C | 53% | 1028.7 hPa | - | - | - | - |
| 1777418001 | 3.89° C | 53% | 1028.6 hPa | - | - | - | - |
| 1777417984 | 5° C | 54% | 1028.5 hPa | - | - | - | - |
| 1777417959 | 2.22° C | 53% | 1028.6 hPa | - | - | - | - |
* Rain since midnight (hover to see other rain measurements)
** Current wind speed in m/s (hover to see current wind gust speed)